Tracking 28794 objects as of 19-Apr-2024
HD Live streaming from Space Station
objects crossing your sky now

CZ-6A DEB

Track CZ-6A DEB now!
10-day predictions


NORAD ID: 54990
Int'l Code: 2022-151UF
Perigee: 691.9 km
Apogee: 838.6 km
Inclination: 98.7 °
Period: 100.0 minutes
Semi major axis: 7136 km
RCS: Unknown
Launch date: November 11, 2022
Source: People's Republic of China (PRC)
Launch site: Taiyaun Space Center, China (TSC)

Note: This is SATELLITE DEBRIS
Your satellite tracking list
Your tracking list is empty




NASA's NSSDC Master Catalog

Two Line Element Set (TLE):
1 54990U 22151UF  24110.02116949  .00012647  00000-0  37714-2 0  9992
2 54990  98.6883 129.6143 0102821 200.3598 159.3477 14.40123259 73937
Source of the keplerian elements: AFSPC